761  
ASUS46 KSEW 222110  
RWRWA  
 
WASHINGTON REGIONAL WEATHER ROUNDUP  
NATIONAL WEATHER SERVICE SEATTLE WA  
100 PM PST MON JAN 22 2018  
 
NOTE:"FAIR" INDICATES FEW OR NO CLOUDS BELOW 12,000 FEET WITH NO  
SIGNIFICANT WEATHER AND/OR S TO VISIBILITY
.  
 
WAZ507-509-555>559-222200-  
SEATTLE, TACOMA, EVERETT, AND VICINITY  
 
CITY SKY/WX TMP DP RH WIND PRES REMARKS
 
EVERETT PTSUNNY 45 39 79 S15 30.25R  
BOEING FIELD PTSUNNY 47 39 74 S16G23 30.27R  
RENTON PTSUNNY 48 38 68 S10G20 30.27R  
SEATAC AIRPORT PTSUNNY 46 39 76 S16 30.26S  
JBLM-MCCHORD PTSUNNY 45 45 100 S12 30.29R  
PUYALLUP FAIR 46 41 81 SW8G15 30.29R  
BREMERTON MOSUNNY 44 40 85 S13 30.26R  
JBLM-FT LEWIS PTSUNNY 45 45 99 SE13 30.29R  
TACOMA NARROWS LGT RAIN 43 41 93 S10 30.29R  

 
 
WAZ001-503-506-510-514-515-222200-  
NORTH INTERIOR  
 
CITY SKY/WX TMP DP RH WIND PRES REMARKS
 
BELLINGHAM CLOUDY 45 40 82 S9 30.23R  
FRIDAY HARBOR PTSUNNY 45 39 79 S8 30.25R  
EASTSOUND CLOUDY 46 41 81 S9 30.23R  
PORT ANGELES SUNNY 48 40 73 W6 30.24R  
EDIZ HOOK FAIR 46 39 75 CALM 30.25R  
PORT TOWNSEND FAIR 46 41 81 E6 30.25R  
NAS WHIDBEY PTSUNNY 48 39 71 S10 30.29R  
ARLINGTON CLOUDY 44 40 85 S5 30.27R  
BURLINGTON PTSUNNY 46 41 81 SE9G15 30.25R  

 
 
WAZ020-022-039-040-504-511-512-222200-  
SOUTHWEST INTERIOR  
 
CITY SKY/WX TMP DP RH WIND PRES REMARKS
 
SHELTON PTSUNNY 44 41 89 S5 30.25S  
OLYMPIA CLOUDY 46 43 89 S9 30.29S  
CHEHALIS FAIR 48 43 81 S8 30.30S  
KELSO PTSUNNY 47 42 83 S9 30.33R  
VANCOUVER CLOUDY 48 43 82 CALM 30.33S  
SCAPPOOSE, OR CLOUDY 48 43 82 SE5 30.33R  
PORTLAND, OR CLOUDY 49 42 77 W5 30.33S  

 
 
WAZ021-516-517-222200-  
WASHINGTON COAST  
 
CITY SKY/WX TMP DP RH WIND PRES REMARKS
 
FORKS MOSUNNY 47 38 71 SW8 30.24S  
HOQUIAM PTSUNNY 48 43 82 SW12 30.28R  
ASTORIA, OR PTSUNNY 48 40 73 SW5 30.30R  

 
 
WAZ019-023-024-040-567>569-222200-  
CASCADE MOUNTAINS AND COLUMBIA GORGE  
 
CITY SKY/WX TMP DP RH WIND PRES REMARKS
 
STAMPEDE PASS LGT SNOW 30 28 92 VRB7G21 30.13S FOG  
TROUTDALE, OR CLOUDY 50 42 74 SW10 30.33S  
HOOD RIVER, OR LGT RAIN 43 37 81 W12G23 30.29R  
THE DALLES, OR CLOUDY 45 38 76 CALM 30.29R  

 
 
WAZ026-027-041>044-520-521-222200-  
EAST SLOPES  
 
CITY SKY/WX TMP DP RH WIND PRES REMARKS
 
OMAK SUNNY 39 32 76 S8 30.13S  
WENATCHEE SUNNY 40 33 76 CALM 30.15S  
ELLENSBURG NOT AVBL  
YAKIMA MOSUNNY 45 32 60 CALM 30.20S  
SUNNYSIDE ARPT CLEAR 48 32 54 CALM 30.22S  
YAKIMA TC FAIR 44 30 58 CALM 30.17S  

 
 
WAZ028-034-035-222200-  
COLUMBIA BASIN  
 
CITY SKY/WX TMP DP RH WIND PRES REMARKS
 
EPHRATA SUNNY 44 30 57 SW5 30.16S  
MOSES LAKE SUNNY 46 33 60 SW12G20 30.17S  
PASCO SUNNY 52 36 54 SW18G25 30.23S  
RICHLAND ARPT PTCLDY 52 38 58 SW13G21 30.23R  
HERMISTON, OR MOSUNNY 51 35 54 W16 30.24S  

 
 
WAZ036>038-222200-  
NORTHEAST WASHINGTON  
 
CITY SKY/WX TMP DP RH WIND PRES REMARKS
 
SPOKANE GEIGER PTSUNNY 37 33 85 SW17 30.13F  
SPOKANE FELTS CLOUDY 41 33 73 SW13 30.16F  
FAIRCHILD AFB PTSUNNY 36 36 100 SW14 30.12S  
COEURDALENE,ID LGT RAIN 36 32 85 S6 30.15F  
DEER PARK CLOUDY 35 31 85 S5 30.15S  

 
 
WAZ029>033-222200-  
SOUTHEAST WASHINGTON  
 
CITY SKY/WX TMP DP RH WIND PRES REMARKS
 
PULLMAN LGT RAIN 39 34 82 SW16G28 30.19S  
LEWISTON, ID CLOUDY 47 37 68 NW5 30.20F  
WALLA WALLA CLOUDY 49 33 54 SW17G23 30.23S  
PENDLETON, OR CLOUDY 48 33 56 W22 30.22S  

 
 
 
CLICK HERE TO GO TO PREVIOUS BULLETINS.

The Nexlab WA Page Main Text Page